FW3074 Weather Reports


Display with metric or nautical units.
time (UTC)temp
F
wind
direction
speed
MPH
gust
MPH
rain 1hr
in
rain 24hr
in
rain mn
in
humidity
%
barometer
mb
20240523090036 49 308 0.0 5.0 0.00 0.00 0.00 35 1010.4
20240523084534 50 280 0.0 2.0 0.00 0.00 0.00 33 1010.6
20240523083028 51 304 0.0 1.0 0.00 0.00 0.00 33 1010.7
20240523081526 51 304 1.0 4.0 0.00 0.00 0.00 32 1010.8
20240523080024 51 278 0.0 2.0 0.00 0.00 0.00 32 1011.0
20240523074521 52 300 0.0 3.0 0.00 0.00 0.00 31 1011.1
20240523073017 53 290 0.0 2.0 0.00 0.00 0.00 30 1011.3
20240523071513 55 290 0.0 3.0 0.00 0.00 0.00 29 1011.3
20240523070011 55 319 0.0 0.0 0.00 0.00 0.00 28 1011.3
20240523064510 54 319 1.0 3.0 0.00 0.00 0.00 29 1011.5
20240523063010 56 269 0.0 3.0 0.00 0.00 0.00 27 1011.3
20240523061509 57 198 2.0 4.0 0.00 0.00 0.00 26 1011.3
20240523060009 57 305 0.0 3.0 0.00 0.00 0.00 26 1011.4
20240523054508 59 308 2.0 3.0 0.00 0.00 0.00 25 1011.4
20240523053008 60 306 1.0 4.0 0.00 0.00 0.00 24 1011.4
20240523051508 58 270 1.0 2.0 0.00 0.00 0.00 25 1011.5
20240523050018 60 270 1.0 3.0 0.00 0.00 0.00 23 1011.4
20240523044507 64 225 1.0 2.0 0.00 0.00 0.00 21 1011.3
20240523043009 66 220 1.0 3.0 0.00 0.00 0.00 19 1011.2
20240523041507 67 220 2.0 3.0 0.00 0.00 0.00 18 1011.1
20240523040006 68 213 2.0 3.0 0.00 0.00 0.00 18 1010.9
20240523034505 69 206 1.0 3.0 0.00 0.00 0.00 17 1010.8
20240523033004 71 220 1.0 5.0 0.00 0.00 0.00 17 1010.7
20240523031504 72 223 2.0 4.0 0.00 0.00 0.00 16 1010.3
20240523030007 73 188 3.0 6.0 0.00 0.00 0.00 15 1010.2
20240523024506 74 201 2.0 4.0 0.00 0.00 0.00 15 1010.1
20240523023100 75 193 4.0 9.0 0.00 0.00 0.00 14 1010.1
20240523021606 77 244 4.0 10.0 0.00 0.00 0.00 13 1010.0
20240523020059 78 225 6.0 11.0 0.00 0.00 0.00 13 1009.9
20240523014606 79 198 7.0 15.0 0.00 0.00 0.00 13 1009.9
20240523013056 79 206 9.0 15.0 0.00 0.00 0.00 13 1009.8
20240523011605 80 208 8.0 20.0 0.00 0.00 0.00 13 1009.7
20240523010108 81 207 11.0 20.0 0.00 0.00 0.00 13 1009.8
20240523004558 81 207 10.0 17.0 0.00 0.00 0.00 13 1009.8
20240523003100 82 208 12.0 27.0 0.00 0.00 0.00 13 1009.8
20240523001553 82 202 12.0 19.0 0.00 0.00 0.00 13 1009.8
20240523000100 83 158 9.0 20.0 0.00 0.00 0.00 13 1009.7
20240522234553 82 227 13.0 21.0 0.00 0.00 0.00 13 1009.8
20240522233047 83 187 12.0 21.0 0.00 0.00 0.00 14 1009.8
20240522231547 83 169 14.0 19.0 0.00 0.00 0.00 13 1009.7
20240522230057 83 181 10.0 20.0 0.00 0.00 0.00 13 1010.0
20240522224556 83 167 11.0 19.0 0.00 0.00 0.00 13 1010.2
20240522223044 83 177 10.0 21.0 0.00 0.00 0.00 13 1010.3
20240522221542 83 159 9.0 18.0 0.00 0.00 0.00 13 1010.3
20240522220107 83 234 12.0 19.0 0.00 0.00 0.00 13 1010.7
20240522214536 84 211 10.0 18.0 0.00 0.00 0.00 13 1010.9
20240522213035 84 213 13.0 20.0 0.00 0.00 0.00 13 1011.1
20240522211533 83 229 11.0 20.0 0.00 0.00 0.00 12 1011.1
20240522210030 83 184 11.0 19.0 0.00 0.00 0.00 13 1011.3
20240522204539 83 204 9.0 18.0 0.00 0.00 0.00 13 1011.4
20240522203025 83 186 12.0 18.0 0.00 0.00 0.00 14 1011.6
20240522201528 82 163 12.0 21.0 0.00 0.00 0.00 14 1011.8
20240522200041 81 157 14.0 23.0 0.00 0.00 0.00 14 1012.0
20240522194536 82 163 11.0 21.0 0.00 0.00 0.00 14 1012.0
20240522193023 82 150 8.0 18.0 0.00 0.00 0.00 14 1012.1
20240522191519 82 190 11.0 21.0 0.00 0.00 0.00 14 1012.3
20240522190018 82 209 7.0 17.0 0.00 0.00 0.00 14 1012.3
20240522184518 81 234 10.0 17.0 0.00 0.00 0.00 14 1012.4
20240522183013 80 161 9.0 18.0 0.00 0.00 0.00 15 1012.5
20240522181512 80 161 8.0 20.0 0.00 0.00 0.00 15 1012.6
20240522180023 80 181 10.0 14.0 0.00 0.00 0.00 15 1012.7
20240522174510 80 182 10.0 18.0 0.00 0.00 0.00 15 1012.7
20240522173008 79 148 10.0 14.0 0.00 0.00 0.00 16 1012.7
20240522171507 78 167 8.0 15.0 0.00 0.00 0.00 16 1012.8
20240522170006 78 191 9.0 16.0 0.00 0.00 0.00 15 1012.7
20240522164504 78 177 8.0 14.0 0.00 0.00 0.00 16 1012.9
20240522163100 77 199 6.0 13.0 0.00 0.00 0.00 15 1012.8
20240522161556 76 215 8.0 13.0 0.00 0.00 0.00 15 1012.7
20240522160053 75 209 6.0 11.0 0.00 0.00 0.00 16 1012.8
20240522154553 75 177 5.0 9.0 0.00 0.00 0.00 16 1012.8
20240522153046 73 155 2.0 7.0 0.00 0.00 0.00 18 1012.7
20240522151542 70 133 1.0 3.0 0.00 0.00 0.00 20 1012.7
20240522150038 68 17 0.0 4.0 0.00 0.00 0.00 20 1012.6
20240522144534 65 61 3.0 6.0 0.00 0.00 0.00 22 1012.6
20240522143029 63 31 1.0 3.0 0.00 0.00 0.00 24 1012.5
20240522141524 61 31 1.0 4.0 0.00 0.00 0.00 26 1012.6
20240522140021 58 18 1.0 3.0 0.00 0.00 0.00 26 1012.7
20240522134528 56 337 1.0 3.0 0.00 0.00 0.00 27 1012.7
20240522133011 53 318 2.0 4.0 0.00 0.00 0.00 29 1012.5
20240522131508 52 337 2.0 4.0 0.00 0.00 0.00 29 1012.6
20240522130012 50 295 2.0 4.0 0.00 0.00 0.00 30 1012.6
20240522124506 48 319 1.0 3.0 0.00 0.00 0.00 31 1012.5
20240522123005 46 283 1.0 2.0 0.00 0.00 0.00 32 1012.6
20240522121503 46 271 0.0 0.0 0.00 0.00 0.00 32 1012.5
20240522120002 45 271 0.0 0.0 0.00 0.00 0.00 34 1012.4
20240522114504 44 272 0.0 0.0 0.00 0.00 0.00 35 1012.2
20240522113058 44 323 0.0 0.0 0.00 0.00 0.00 34 1012.2
20240522111556 45 323 0.0 3.0 0.00 0.00 0.00 32 1012.2
20240522110054 46 231 0.0 0.0 0.00 0.00 0.00 32 1012.1
20240522104553 45 231 0.0 0.0 0.00 0.00 0.00 32 1012.0
20240522103057 45 231 0.0 0.0 0.00 0.00 0.00 32 1012.0
20240522101553 46 312 0.0 0.0 0.00 0.00 0.00 31 1011.9
20240522100047 46 310 0.0 0.0 0.00 0.00 0.00 31 1012.1
20240522094543 48 310 0.0 3.0 0.00 0.00 0.00 29 1012.1
20240522093046 48 303 2.0 4.0 0.00 0.00 0.00 28 1012.2
20240522091539 48 313 1.0 3.0 0.00 0.00 0.00 28 1012.3